sat.trackr.live / text

‹ back to catalog

STARLINK-2663

NORAD 48443 · 2021-040R

PAYLOAD ACTIVE UNKNOWN

§ Identity

Operator
Country
US
Launch date
2021-05-09
Launch site
AFETR
Launch vehicle
Mass (kg)
RCS (m²)

Purposes: comms

External: N2YO · Heavens-Above · Gunter

§ Orbital elements

Epoch: 2026-05-24T19:46:31.877184Z

Period
94.01 min
Inclination
53.1579°
Eccentricity
0.0001558
Mean motion
15.31707313 rev/d
Perigee alt
469.7 km
Apogee alt
471.8 km
Semi-major
6,848.9 km
B*
2.6764e-5
RAAN
183.9889°
Arg perigee
83.6597°
Mean anomaly
276.4582°
Rev number
27,834

§ Raw data

STARLINK-26631 48443U 21040R   26144.82398006  .00000465  00000+0  26764-4 0  99962 48443  53.1579 183.9889 0001558  83.6597 276.4582 15.31707313278347

JSON: /api/v1/satellites/48443 · /tle

For live sub-satellite position, see the globe view (requires WebGL).

§ Visibility from observer

Set your observer location to see the next 7 days of passes ≥ 10°. The values pass through the URL so the page stays shareable.

No JS? Fill the form by hand. The geolocation button needs JavaScript.